Regional Weather Roundup
Issued by NWS Sioux Falls, SD

Home | Current Version | Previous Version | Text Only | Print | Product List | Glossary On
Versions: 1 2 3 4 5 6 7 8 9 10 11 12 13 14 15 16 17 18 19 20 21 22 23 24 25 26 27 28 29 30 31 32 33 34 35 36 37 38 39 40 41 42 43 44 45 46 47 48 49 50
351
ASUS43 KFSD 222010
RWRFSD

WEATHER ROUNDUP FOR SE SOUTH DAKOTA/SW MINNESOTA/NW IOWA
NATIONAL WEATHER SERVICE SIOUX FALLS SD
200 PM CST SUN JAN 22 2017

NOTE: "FAIR" INDICATES FEW OR NO CLOUDS BELOW 12,000 FEET WITH NO
SIGNIFICANT WEATHER AND OR OBSTRUCTIONS TO VISIBILITY.


SDZ038>040-050-052>070-222100-
SOUTHEAST SOUTH DAKOTA

CITY           SKY/WX    TMP DP  RH WIND       PRES   REMARKS
BROOKINGS      CLOUDY    28  27  96 NW14      29.77S FOG     WCI  17
CHAMBERLAIN    SUNNY     34  28  77 W16       29.84S WCI  23
HURON          CLOUDY    29  27  92 W12       29.82S WCI  19
MADISON        CLOUDY    27  27 100 NW17        N/A  WCI  14
MITCHELL       MOSUNNY   31  27  85 NW15      29.85S WCI  20
SIOUX FALLS    CLOUDY    32  29  88 NW13      29.80S FOG     WCI  22
WINNER         FAIR      40  29  64 NW14      29.84S
YANKTON        MOSUNNY   37  28  70 NW14      29.81S
$$

MNZ071-072-080-081-089-090-097-098-222100-
SOUTHWEST MINNESOTA

CITY           SKY/WX    TMP DP  RH WIND       PRES   REMARKS
FAIRMONT       CLOUDY    38  36  92 NW9       29.74S
JACKSON        CLOUDY    34  34 100 NW12      29.75R WCI  25
LUVERNE        CLOUDY    32  30  93 W9        29.78S FOG     WCI  24
MARSHALL       CLOUDY    34  32  92 W14       29.77R WCI  25
MONTEVIDEO     CLOUDY    34  34 100 NW10G16   29.78S WCI  26
PIPESTONE      FOG       30  30 100 W10       29.76S VSB 1   WCI  21
REDWOOD FALLS  CLOUDY    35  33  92 NW7       29.75S FOG     WCI  29
TRACY          CLOUDY    37  36  95 NW9       29.76S FOG
WINDOM         CLOUDY    36  36 100 NW12      29.74S FOG
WORTHINGTON    CLOUDY    35  33  92 W13       29.76R FOG     WCI  26
$$

IAZ001>003-012>014-020>022-031-032-NEZ013-014-SDZ071-222100-
NORTHWEST IOWA

CITY           SKY/WX    TMP DP  RH WIND       PRES   REMARKS
CHEROKEE       CLOUDY    36  35  96 NW7       29.77S
DENISON        CLOUDY    36  34  93 NW12      29.75S
ESTHERVILLE    CLOUDY    35  35 100 NW13      29.74S FOG     WCI  26
LE MARS        CLOUDY    34  32  93 W12       29.81S FOG     WCI  25
ORANGE CITY    CLOUDY    34  34 100 NW14      29.78S FOG     WCI  24
SHELDON        CLOUDY    36  36 100 NW13      29.76S FOG
SIOUX CITY     CLOUDY    36  32  85 NW16      29.80S
SPENCER          N/A    N/A N/A N/A MISG      29.75F
STORM LAKE     CLOUDY    36  34  93 NW13      29.75S FOG
$$

ABBREVIATIONS USED IN REMARKS
   TC - TEMPERATURE IN CELSIUS
  WCI - WIND CHILL INDEX
   HX - HEAT INDEX
  VSB - VISIBILITY





USA.gov is the U.S. government's official web portal to all federal, state and local government web resources and services.